Time,TemperatureF,DewpointF,PressureIn,WindDirection,WindDirectionDegrees,WindSpeedMPH,WindSpeedGustMPH,Humidity,HourlyPrecipIn,Conditions,Clouds,dailyrainin,SoftwareType,DateUTC
2013-08-08 00:11:00,63.0,60.0,-100.00,North,5,0.0,1.0,89,-99.99,,,-99.99,,2013-08-08 05:11:00,
2013-08-08 00:22:00,63.0,60.0,-100.00,North,5,0.0,1.0,89,-99.99,,,-99.99,,2013-08-08 05:22:00,
2013-08-08 00:33:00,63.0,60.0,-100.00,NNW,330,1.0,2.0,89,-99.99,,,-99.99,,2013-08-08 05:33:00,
2013-08-08 00:43:00,63.0,61.0,-100.00,SW,230,1.0,2.0,90,-99.99,,,-99.99,,2013-08-08 05:43:00,
2013-08-08 00:52:00,63.0,61.0,-100.00,SW,230,1.0,2.0,90,-99.99,,,-99.99,,2013-08-08 05:52:00,
2013-08-08 01:01:00,63.0,61.0,-100.00,WSW,240,1.0,2.0,92,-99.99,,,-99.99,,2013-08-08 06:01:00,
2013-08-08 01:12:00,62.0,60.0,-100.00,WNW,295,1.0,4.0,94,-99.99,,,-99.99,,2013-08-08 06:12:00,
2013-08-08 01:22:00,62.0,60.0,-100.00,WNW,295,1.0,4.0,94,-99.99,,,-99.99,,2013-08-08 06:22:00,
2013-08-08 01:43:00,62.0,60.0,-100.00,NW,315,2.0,3.0,95,-99.99,,,-99.99,,2013-08-08 06:43:00,
2013-08-08 01:52:00,62.0,60.0,-100.00,NW,315,2.0,3.0,95,-99.99,,,-99.99,,2013-08-08 06:52:00,
2013-08-08 02:12:00,61.0,59.0,-100.00,North,355,0.0,0.0,96,-99.99,,,-99.99,,2013-08-08 07:12:00,
2013-08-08 02:22:00,61.0,59.0,-100.00,North,355,0.0,0.0,96,-99.99,,,-99.99,,2013-08-08 07:22:00,
2013-08-08 02:32:00,61.0,59.0,-100.00,ESE,115,1.0,3.0,96,-99.99,,,-99.99,,2013-08-08 07:32:00,
2013-08-08 02:43:00,61.0,60.0,-100.00,NW,320,1.0,2.0,96,-99.99,,,-99.99,,2013-08-08 07:43:00,
2013-08-08 02:53:00,61.0,60.0,-100.00,NW,320,1.0,2.0,96,-99.99,,,-99.99,,2013-08-08 07:53:00,
2013-08-08 03:02:00,61.0,60.0,-100.00,WNW,300,1.0,3.0,96,-99.99,,,-99.99,,2013-08-08 08:02:00,
2013-08-08 03:11:00,61.0,59.0,-100.00,NNW,335,1.0,2.0,95,-99.99,,,-99.99,,2013-08-08 08:11:00,
2013-08-08 03:22:00,61.0,59.0,-100.00,NNW,335,1.0,2.0,95,-99.99,,,-99.99,,2013-08-08 08:22:00,
2013-08-08 03:43:00,60.0,59.0,-100.00,West,270,0.0,4.0,95,-99.99,,,-99.99,,2013-08-08 08:43:00,
2013-08-08 03:53:00,60.0,59.0,-100.00,West,270,0.0,4.0,95,-99.99,,,-99.99,,2013-08-08 08:53:00,
2013-08-08 04:12:00,60.0,59.0,-100.00,NW,305,1.0,4.0,95,-99.99,,,-99.99,,2013-08-08 09:12:00,
2013-08-08 04:22:00,60.0,59.0,-100.00,NW,305,1.0,4.0,95,-99.99,,,-99.99,,2013-08-08 09:22:00,
2013-08-08 04:43:00,60.0,59.0,-100.00,WNW,290,1.0,1.0,96,-99.99,,,-99.99,,2013-08-08 09:43:00,
2013-08-08 04:53:00,60.0,59.0,-100.00,WNW,290,1.0,1.0,96,-99.99,,,-99.99,,2013-08-08 09:53:00,
2013-08-08 05:01:00,60.0,58.0,-100.00,NNW,340,3.0,4.0,96,-99.99,,,-99.99,,2013-08-08 10:01:00,
2013-08-08 05:12:00,59.0,58.0,-100.00,West,265,1.0,2.0,96,-99.99,,,-99.99,,2013-08-08 10:12:00,
2013-08-08 05:22:00,59.0,58.0,-100.00,West,265,1.0,2.0,96,-99.99,,,-99.99,,2013-08-08 10:22:00,
2013-08-08 05:32:00,59.0,58.0,-100.00,North,350,4.0,6.0,96,-99.99,,,-99.99,,2013-08-08 10:32:00,
2013-08-08 05:43:00,60.0,59.0,-100.00,NE,45,4.0,9.0,95,-99.99,,,-99.99,,2013-08-08 10:43:00,
2013-08-08 05:52:00,60.0,59.0,-100.00,NE,45,4.0,9.0,95,-99.99,,,-99.99,,2013-08-08 10:52:00,
2013-08-08 06:02:00,60.0,59.0,-100.00,ENE,70,0.0,4.0,94,-99.99,,,-99.99,,2013-08-08 11:02:00,
2013-08-08 06:11:00,61.0,59.0,-100.00,NNE,25,1.0,4.0,96,-99.99,,,-99.99,,2013-08-08 11:11:00,
2013-08-08 06:22:00,61.0,59.0,-100.00,NNE,25,1.0,4.0,96,-99.99,,,-99.99,,2013-08-08 11:22:00,
2013-08-08 06:43:00,60.0,59.0,-100.00,NE,40,0.0,1.0,96,-99.99,,,-99.99,,2013-08-08 11:43:00,
2013-08-08 06:52:00,60.0,59.0,-100.00,NE,40,0.0,1.0,96,-99.99,,,-99.99,,2013-08-08 11:52:00,
2013-08-08 07:01:00,62.0,60.0,-100.00,NE,45,4.0,8.0,96,-99.99,,,-99.99,,2013-08-08 12:01:00,
2013-08-08 07:11:00,63.0,61.0,-100.00,NE,35,4.0,6.0,94,-99.99,,,-99.99,,2013-08-08 12:11:00,
2013-08-08 07:22:00,63.0,61.0,-100.00,NE,35,4.0,6.0,94,-99.99,,,-99.99,,2013-08-08 12:22:00,
2013-08-08 07:43:00,64.0,61.0,-100.00,ENE,70,4.0,8.0,91,-99.99,,,-99.99,,2013-08-08 12:43:00,
2013-08-08 07:53:00,64.0,61.0,-100.00,ENE,70,4.0,8.0,91,-99.99,,,-99.99,,2013-08-08 12:53:00,
2013-08-08 08:11:00,64.0,61.0,-100.00,ENE,75,6.0,11.0,90,-99.99,,,-99.99,,2013-08-08 13:11:00,
2013-08-08 08:22:00,64.0,61.0,-100.00,ENE,75,6.0,11.0,90,-99.99,,,-99.99,,2013-08-08 13:22:00,
2013-08-08 08:32:00,65.0,62.0,-100.00,East,85,5.0,11.0,91,-99.99,,,-99.99,,2013-08-08 13:32:00,
2013-08-08 08:43:00,66.0,62.0,-100.00,East,80,7.0,10.0,88,-99.99,,,-99.99,,2013-08-08 13:43:00,
2013-08-08 08:53:00,66.0,62.0,-100.00,East,80,7.0,10.0,88,-99.99,,,-99.99,,2013-08-08 13:53:00,
2013-08-08 09:11:00,67.0,62.0,-100.00,ENE,75,9.0,15.0,85,-99.99,,,-99.99,,2013-08-08 14:11:00,
2013-08-08 09:22:00,67.0,62.0,-100.00,ENE,75,9.0,15.0,85,-99.99,,,-99.99,,2013-08-08 14:22:00,
2013-08-08 09:32:00,68.0,63.0,-100.00,NE,55,8.0,14.0,83,-99.99,,,-99.99,,2013-08-08 14:32:00,
2013-08-08 09:43:00,68.0,62.0,-100.00,East,90,7.0,13.0,82,-99.99,,,-99.99,,2013-08-08 14:43:00,
2013-08-08 09:53:00,68.0,62.0,-100.00,East,90,7.0,13.0,82,-99.99,,,-99.99,,2013-08-08 14:53:00,
2013-08-08 10:02:00,68.0,62.0,-100.00,East,85,9.0,14.0,81,-99.99,,,-99.99,,2013-08-08 15:02:00,
2013-08-08 10:11:00,69.0,62.0,-100.00,East,80,8.0,11.0,79,-99.99,,,-99.99,,2013-08-08 15:11:00,
2013-08-08 10:22:00,69.0,62.0,-100.00,East,80,8.0,11.0,79,-99.99,,,-99.99,,2013-08-08 15:22:00,
2013-08-08 10:43:00,71.0,63.0,-100.00,East,90,7.0,12.0,74,-99.99,,,-99.99,,2013-08-08 15:43:00,
2013-08-08 10:53:00,71.0,63.0,-100.00,East,90,7.0,12.0,74,-99.99,,,-99.99,,2013-08-08 15:53:00,
2013-08-08 11:11:00,72.0,62.0,-100.00,ESE,115,4.0,11.0,72,-99.99,,,-99.99,,2013-08-08 16:11:00,
2013-08-08 11:22:00,72.0,62.0,-100.00,ESE,115,4.0,11.0,72,-99.99,,,-99.99,,2013-08-08 16:22:00,
2013-08-08 11:32:00,73.0,62.0,-100.00,NE,40,4.0,10.0,70,-99.99,,,-99.99,,2013-08-08 16:32:00,
2013-08-08 11:42:00,73.0,63.0,-100.00,East,95,4.0,9.0,71,-99.99,,,-99.99,,2013-08-08 16:42:00,
2013-08-08 11:52:00,73.0,63.0,-100.00,East,95,4.0,9.0,71,-99.99,,,-99.99,,2013-08-08 16:52:00,
2013-08-08 12:02:00,73.0,63.0,-100.00,ENE,65,5.0,11.0,70,-99.99,,,-99.99,,2013-08-08 17:02:00,
2013-08-08 12:11:00,73.0,61.0,-100.00,ENE,70,4.0,9.0,67,-99.99,,,-99.99,,2013-08-08 17:11:00,
2013-08-08 12:21:00,73.0,61.0,-100.00,ENE,70,4.0,9.0,67,-99.99,,,-99.99,,2013-08-08 17:21:00,
2013-08-08 12:32:00,73.0,62.0,-100.00,ENE,75,7.0,11.0,68,-99.99,,,-99.99,,2013-08-08 17:32:00,
2013-08-08 12:43:00,74.0,62.0,-100.00,ENE,65,6.0,11.0,66,-99.99,,,-99.99,,2013-08-08 17:43:00,
2013-08-08 12:52:00,74.0,62.0,-100.00,ENE,65,6.0,11.0,66,-99.99,,,-99.99,,2013-08-08 17:52:00,
2013-08-08 13:01:00,75.0,61.0,-100.00,ENE,65,7.0,11.0,62,-99.99,,,-99.99,,2013-08-08 18:01:00,
2013-08-08 13:11:00,76.0,61.0,-100.00,SE,130,6.0,12.0,60,-99.99,,,-99.99,,2013-08-08 18:11:00,
2013-08-08 13:22:00,76.0,61.0,-100.00,SE,130,6.0,12.0,60,-99.99,,,-99.99,,2013-08-08 18:22:00,
2013-08-08 13:32:00,76.0,61.0,-100.00,SE,125,8.0,14.0,60,-99.99,,,-99.99,,2013-08-08 18:32:00,
2013-08-08 13:43:00,76.0,61.0,-100.00,SE,135,7.0,12.0,59,-99.99,,,-99.99,,2013-08-08 18:43:00,
2013-08-08 13:53:00,76.0,61.0,-100.00,SE,135,7.0,12.0,59,-99.99,,,-99.99,,2013-08-08 18:53:00,
2013-08-08 14:01:00,75.0,61.0,-100.00,East,100,4.0,13.0,61,-99.99,,,-99.99,,2013-08-08 19:01:00,
2013-08-08 14:12:00,74.0,60.0,-100.00,East,95,4.0,8.0,60,-99.99,,,-99.99,,2013-08-08 19:12:00,
2013-08-08 14:22:00,74.0,60.0,-100.00,East,95,4.0,8.0,60,-99.99,,,-99.99,,2013-08-08 19:22:00,
2013-08-08 14:32:00,76.0,60.0,-100.00,ESE,105,7.0,10.0,57,-99.99,,,-99.99,,2013-08-08 19:32:00,
2013-08-08 14:43:00,77.0,59.0,-100.00,SE,135,4.0,7.0,55,-99.99,,,-99.99,,2013-08-08 19:43:00,
2013-08-08 14:58:00,77.0,59.0,-100.00,SE,135,4.0,7.0,55,-99.99,,,-99.99,,2013-08-08 19:58:00,
2013-08-08 15:11:00,78.0,59.0,-100.00,ENE,70,3.0,6.0,53,-99.99,,,-99.99,,2013-08-08 20:11:00,
2013-08-08 15:22:00,78.0,59.0,-100.00,ENE,70,3.0,6.0,53,-99.99,,,-99.99,,2013-08-08 20:22:00,
2013-08-08 15:32:00,80.0,60.0,-100.00,NE,35,1.0,5.0,50,-99.99,,,-99.99,,2013-08-08 20:32:00,
2013-08-08 15:42:00,79.0,60.0,-100.00,NNE,30,6.0,9.0,53,-99.99,,,-99.99,,2013-08-08 20:42:00,
2013-08-08 15:52:00,79.0,60.0,-100.00,NNE,30,6.0,9.0,53,-99.99,,,-99.99,,2013-08-08 20:52:00,
2013-08-08 16:14:00,78.0,60.0,-100.00,ENE,65,5.0,9.0,53,-99.99,,,-99.99,,2013-08-08 21:14:00,
2013-08-08 16:24:00,78.0,60.0,-100.00,ENE,65,5.0,9.0,53,-99.99,,,-99.99,,2013-08-08 21:24:00,
2013-08-08 16:44:00,79.0,59.0,-100.00,East,85,3.0,6.0,52,-99.99,,,-99.99,,2013-08-08 21:44:00,
2013-08-08 16:57:00,79.0,59.0,-100.00,East,85,3.0,6.0,52,-99.99,,,-99.99,,2013-08-08 21:57:00,
2013-08-08 17:16:00,78.0,61.0,-100.00,ENE,75,5.0,10.0,56,-99.99,,,-99.99,,2013-08-08 22:16:00,
2013-08-08 17:25:00,78.0,61.0,-100.00,ENE,75,5.0,10.0,56,-99.99,,,-99.99,,2013-08-08 22:25:00,
2013-08-08 17:35:00,78.0,60.0,-100.00,ENE,75,4.0,9.0,55,-99.99,,,-99.99,,2013-08-08 22:35:00,
2013-08-08 17:47:00,79.0,61.0,-100.00,NNE,20,3.0,4.0,54,-99.99,,,-99.99,,2013-08-08 22:47:00,
2013-08-08 17:58:00,79.0,61.0,-100.00,NNE,20,3.0,4.0,54,-99.99,,,-99.99,,2013-08-08 22:58:00,
2013-08-08 18:04:00,77.0,60.0,-100.00,East,100,3.0,5.0,56,-99.99,,,-99.99,,2013-08-08 23:04:00,
2013-08-08 18:14:00,78.0,60.0,-100.00,ENE,75,5.0,9.0,55,-99.99,,,-99.99,,2013-08-08 23:14:00,
2013-08-08 18:24:00,78.0,60.0,-100.00,ENE,75,5.0,9.0,55,-99.99,,,-99.99,,2013-08-08 23:24:00,
2013-08-08 18:36:00,77.0,60.0,-100.00,East,90,6.0,9.0,57,-99.99,,,-99.99,,2013-08-08 23:36:00,
2013-08-08 18:46:00,76.0,60.0,-100.00,ENE,70,4.0,9.0,58,-99.99,,,-99.99,,2013-08-08 23:46:00,
2013-08-08 18:57:00,76.0,60.0,-100.00,ENE,70,4.0,9.0,58,-99.99,,,-99.99,,2013-08-08 23:57:00,
2013-08-08 19:24:00,75.0,61.0,-100.00,ENE,65,2.0,6.0,60,-99.99,,,-99.99,,2013-08-09 00:24:00,
2013-08-08 19:34:00,74.0,61.0,-100.00,NE,45,1.0,4.0,64,-99.99,,,-99.99,,2013-08-09 00:34:00,
2013-08-08 19:56:00,74.0,61.0,-100.00,NE,50,1.0,3.0,64,-99.99,,,-99.99,,2013-08-09 00:56:00,
2013-08-08 20:03:00,73.0,61.0,-100.00,ENE,70,2.0,3.0,66,-99.99,,,-99.99,,2013-08-09 01:03:00,
2013-08-08 20:15:00,72.0,61.0,-100.00,ENE,65,2.0,4.0,68,-99.99,,,-99.99,,2013-08-09 01:15:00,
2013-08-08 20:25:00,72.0,61.0,-100.00,ENE,65,2.0,4.0,68,-99.99,,,-99.99,,2013-08-09 01:25:00,
2013-08-08 20:59:00,72.0,61.0,-100.00,ENE,75,2.0,4.0,69,-99.99,,,-99.99,,2013-08-09 01:59:00,
2013-08-08 21:14:00,70.0,61.0,-100.00,ENE,65,3.0,4.0,73,-99.99,,,-99.99,,2013-08-09 02:14:00,
2013-08-08 21:25:00,70.0,61.0,-100.00,ENE,65,3.0,4.0,73,-99.99,,,-99.99,,2013-08-09 02:25:00,
2013-08-08 21:37:00,70.0,61.0,-100.00,East,80,2.0,4.0,75,-99.99,,,-99.99,,2013-08-09 02:37:00,
2013-08-08 21:57:00,69.0,62.0,-100.00,East,90,2.0,4.0,78,-99.99,,,-99.99,,2013-08-09 02:57:00,
2013-08-08 22:15:00,68.0,62.0,-100.00,East,95,2.0,4.0,82,-99.99,,,-99.99,,2013-08-09 03:15:00,
2013-08-08 22:34:00,68.0,62.0,-100.00,East,85,2.0,3.0,82,-99.99,,,-99.99,,2013-08-09 03:34:00,
2013-08-08 22:45:00,68.0,62.0,-100.00,East,100,2.0,4.0,82,-99.99,,,-99.99,,2013-08-09 03:45:00,
2013-08-08 22:56:00,68.0,62.0,-100.00,East,100,2.0,4.0,82,-99.99,,,-99.99,,2013-08-09 03:56:00,
2013-08-08 23:01:00,67.0,61.0,-100.00,East,100,2.0,3.0,82,-99.99,,,-99.99,,2013-08-09 04:01:00,
2013-08-08 23:12:00,68.0,61.0,-100.00,ESE,105,4.0,6.0,79,-99.99,,,-99.99,,2013-08-09 04:12:00,
2013-08-08 23:22:00,68.0,61.0,-100.00,ESE,105,4.0,6.0,79,-99.99,,,-99.99,,2013-08-09 04:22:00,
2013-08-08 23:33:00,66.0,61.0,-100.00,East,100,4.0,5.0,82,-99.99,,,-99.99,,2013-08-09 04:33:00,
2013-08-08 23:43:00,66.0,61.0,-100.00,East,100,3.0,4.0,83,-99.99,,,-99.99,,2013-08-09 04:43:00,
2013-08-08 23:53:00,66.0,61.0,-100.00,East,100,3.0,4.0,83,-99.99,,,-99.99,,2013-08-09 04:53:00,